Simultaneous Nadir Overpasses (SNOs) Predictions

Prediction of SNOs between GOES-15 and LANDSAT-8 Satellite Orbit:

Table of predicted SNOs for the next 14.0 days since TLE Epoch: 10/5/2024
Index Date Time (GOES-15) GOES-15 Lat,Lon LANDSAT-8 Lat,Lon Distance(km) Time Diff (sec)
1 10/05/2024 05:59:08 -0.32, 61.21 -0.77, 63.50 260.01 80
2 10/05/2024 18:20:32 0.32, 61.33 -0.34, 58.32 343.41 80
3 10/07/2024 18:08:20 0.32, 61.34 0.30, 61.27 7.18 80
4 10/09/2024 17:53:26 0.31, 61.35 0.91, 64.25 328.91 80
5 10/10/2024 06:14:41 -0.31, 61.24 0.17, 59.09 245.08 80
6 10/12/2024 06:05:06 -0.31, 61.26 -0.48, 62.06 91.27 80
7 10/14/2024 05:52:49 -0.30, 61.28 -1.09, 65.05 427.99 80
8 10/14/2024 18:14:10 0.30, 61.39 -0.05, 59.87 173.96 80
9 10/16/2024 17:59:13 0.30, 61.42 0.61, 62.85 163.00 80
10 10/17/2024 06:20:26 -0.30, 61.32 0.46, 57.70 412.09 80
